Regional Weather Roundup
Issued by NWS Mt. Holly, NJ

Home | Current Version | Previous Version | Text Only | Print | Product List | Glossary On
Versions: 1 2 3 4 5 6 7 8 9 10 11 12 13 14 15 16 17 18 19 20 21 22 23 24 25 26 27 28 29 30 31 32 33 34 35 36 37 38 39 40 41 42 43 44 45 46 47 48
000
ASUS41 KPHI 252112
RWRPHI

REGIONAL WEATHER ROUNDUP
NATIONAL WEATHER SERVICE MOUNT HOLLY NJ
500 PM EDT TUE APR 25 2017

NOTE:  "FAIR" INDICATES FEW OR NO CLOUDS BELOW 12,000 FEET WITH NO
SIGNIFICANT WEATHER AND/OR OBSTRUCTIONS TO VISIBILITY.

 * = STATION DOES NOT REPORT PRECIPITATION (E.G. RAIN, SNOW, ETC.)
        OR FOG.

NJZ015>026-252200-
SOUTHERN NEW JERSEY

CITY           SKY/WX    TMP DP  RH WIND       PRES   REMARKS
POMONA         RAIN      55  53  93 NE15      29.79F FOG
WILDWOOD*      CLOUDY    58  57  97 NE13      29.75F FOG
MILLVILLE      CLOUDY    58  58 100 E16G22    29.77F
WRIGHTSTOWN    RAIN      54  52  94 NE21      29.82F FOG
MOUNT HOLLY    LGT RAIN  54  53  97 E12G18    29.84S
TRENTON        HVY RAIN  56  55  97 NE16G25   29.85F FOG

$$
NJZ001>014-252200-
NORTHERN NEW JERSEY

CITY           SKY/WX    TMP DP  RH WIND       PRES   REMARKS
SUSSEX         LGT RAIN  53  52  96 NE13      29.96F
ANDOVER*         N/A     55  53  93 VRB6      29.93F
MORRISTOWN     LGT RAIN  55  55 100 E8G20     29.94F FOG
NEWARK         LGT RAIN  55  53  93 NE20G29   29.93F FOG
TETERBORO      LGT RAIN  56  53  90 E15G29    29.93F FOG
CALDWELL       RAIN      56  54  93 E16G24    29.95F FOG
SOMERVILLE     LGT RAIN  57  54  89 MISG      29.88F FOG
ALLAIRE*       RAIN      52  52 100 NE22G31   29.87F FOG
TOMS RIVER*    RAIN      52  51  97 NE21G29   29.85F FOG

$$
PAZ043-044-047-054-055-060>062-066>071-252200-
EASTERN PENNSYLVANIA

CITY           SKY/WX    TMP DP  RH WIND       PRES   REMARKS
PHILADELPHIA   LGT RAIN  56  54  93 NE17G28   29.82F FOG
NORTH PHILA    RAIN      57  55  93 NE20G26   29.85F FOG
BLUE BELL*     CLOUDY    54  54 100 NE17G25   29.85F
DOYLESTOWN     LGT RAIN  55  55 100 NE9G20    29.86F
QUAKERTOWN*    CLOUDY    55  55 100 NE10G17   29.87F
PERKASIE*      CLOUDY    55  55 100 NE16G26   29.87F FOG
POTTSTOWN      CLOUDY    56  54  93 NE16G25   29.85F
LANCASTER      RAIN      58  57  97 E21G28    29.80F FOG
COATESVILLE    LGT RAIN  55  55 100 NE7G28    29.83S
READING        LGT RAIN  57  56  96 NE14G21   29.83F
ALLENTOWN      LGT RAIN  56  52  86 NE15      29.88F FOG
MOUNT POCONO   LGT RAIN  49  49 100 E18G25    29.93F FOG
HAZLETON       DRIZZLE   54  52  94 E10G16    29.92F
LEHIGHTON      DRIZZLE   54  52  94 NE8G18    29.91F
WILKES BARRE   CLOUDY    56  51  84 NE8       29.92F

$$
DEZALL-MDZ008-012-015-019-020-252200-
DELAWARE AND EASTERN MARYLAND

CITY           SKY/WX    TMP DP  RH WIND       PRES   REMARKS
WILMINGTON     LGT RAIN  57  56  96 NE18G30   29.80S FOG
DOVER          CLOUDY    59  59 100 NE13      29.74S FOG
GEORGETOWN     FOG       61 N/A N/A NE13      29.71F VSB 1
EASTON         LGT RAIN  63  59  88 E13       29.76F
ABERDEEN       LGT RAIN  58  56  93 E16G23    29.77F FOG
PATUXENT       CLOUDY    64  64 100 NE13      29.67F
OCEAN CITY     CLOUDY    59  59 100 NE8       29.70R FOG
WALLOPS ISLAND LGT RAIN  62  61  96 NE13      29.66F FOG
CAMBRIDGE      CLOUDY    63  61  94 NE6G15    29.69S
SALISBURY      CLOUDY    63  63 100 NE6       29.67F

$$
PAZ001-021-NYZ056-072-MDZ011-DCZ001-252200-
OTHER NEARBY LOCATIONS

CITY           SKY/WX    TMP DP  RH WIND       PRES   REMARKS
HARRISBURG     LGT RAIN  57  56  96 E13G21    29.80F
STATE COLLEGE  LGT RAIN  57  52  82 NE9       29.85F
WILLIAMSPORT   LGT RAIN  60  53  77 E12       29.88F
BINGHAMTON     CLOUDY    57  50  77 E15       29.95F
NEW YORK CITY  RAIN      53  52  96 E16G32    29.98F FOG
BALTIMORE      DRIZZLE   58  57  97 NE18G26   29.75F FOG
WASHINGTON DC  CLOUDY    60  59  96 NE12      29.74R

$$



USA.gov is the U.S. government's official web portal to all federal, state and local government web resources and services.